Location: Northam (historical)
(33.8800°N, 117.9981°W)
Time: 21:15:25
(UTC+00:00)

Daily predictions for brighter satellites

Satellite Brightness Start Highest point End
(mag) Time Altitude Azimuth Time Altitude Azimuth Time Altitude Azimuth
Cosmos 2221 4.2 12:17:47 10° SSE 12:21:34 32° E 12:25:24 10° NNE
Cosmos 1408 Rocket 4.4 12:23:01 33° NNE 12:24:35 49° E 12:28:50 10° SSE
USA 229 DEB 3.8 12:33:26 36° NW 12:36:51 74° WSW 12:44:28 10° SSE
USA 229 3.8 12:33:29 35° NW 12:36:56 74° WSW 12:44:33 10° SSE
Lacrosse 4 Rocket 3.4 12:41:57 19° S 12:41:57 19° S 12:43:21 10° S
Cosmos 1934 Rocket 4.0 12:32:55 10° NNW 12:39:06 59° W 12:45:19 10° S
STARLINK-1053 4.4 12:39:20 42° NNE 12:39:51 45° NE 12:43:49 10° ESE
NOSS 3-1 (A) 4.2 12:36:43 13° NNW 12:43:59 84° ENE 12:52:51 10° SSE
STARLINK-1061 4.3 12:44:08 43° N 12:44:52 50° NE 12:48:53 10° ESE
USA 267 3.6 12:41:28 10° SSE 12:47:28 39° SW 12:47:59 39° WSW
GEOS 3 Rocket 4.3 12:42:38 10° NNE 12:47:07 38° NW 12:47:07 38° NW
STARLINK-1067 4.1 12:48:54 44° N 12:49:50 55° NE 12:53:53 10° ESE
STARLINK-1090 4.5 12:53:05 28° NE 12:53:05 28° NE 12:54:37 10° NE
STARLINK-1089 4.5 12:53:18 28° NE 12:53:18 28° NE 12:54:50 10° NE
STARLINK-1107 4.5 12:53:32 27° NE 12:53:32 27° NE 12:55:03 10° NE
STARLINK-1109 4.5 12:53:44 28° NE 12:53:44 28° NE 12:55:17 10° NE
STARLINK-1091 4.4 12:53:58 28° NE 12:53:58 28° NE 12:55:32 10° NE
STARLINK-1072 4.4 12:54:10 28° NE 12:54:10 28° NE 12:55:44 10° NE
STARLINK-1096 4.4 12:54:23 28° NE 12:54:23 28° NE 12:55:57 10° NE
STARLINK-1079 4.4 12:54:35 29° NE 12:54:35 29° NE 12:56:11 10° NE
STARLINK-1116 4.4 12:54:49 29° NE 12:54:49 29° NE 12:56:24 10° NE
STARLINK-1094 4.4 12:55:15 29° NE 12:55:15 29° NE 12:56:51 10° NE
STARLINK-1117 4.3 12:55:28 29° NE 12:55:28 29° NE 12:57:05 10° NE
STARLINK-1078 4.3 12:55:41 29° NE 12:55:41 29° NE 12:57:18 10° NE
STARLINK-1108 4.3 12:55:54 29° NE 12:55:54 29° NE 12:57:32 10° NE
STARLINK-1058 4.0 12:53:42 43° NNW 12:54:49 62° NE 12:58:55 10° SE
STARLINK-1071 4.3 12:56:07 29° NNE 12:56:07 29° NNE 12:57:44 10° NE
STARLINK-1110 4.3 12:56:20 30° NNE 12:56:20 30° NNE 12:57:59 10° NE
STARLINK-1122 4.3 12:56:46 30° NNE 12:56:46 30° NNE 12:58:26 10° NE
STARLINK-1126 4.2 12:56:59 30° NNE 12:56:59 30° NNE 12:58:40 10° NE
STARLINK-1082 4.2 12:57:12 30° NNE 12:57:12 30° NNE 12:58:53 10° NE
STARLINK-1100 4.2 12:57:25 30° NNE 12:57:25 30° NNE 12:59:06 10° NE
STARLINK-1083 4.2 12:57:38 31° NNE 12:57:38 31° NNE 12:59:20 10° NE
SKYMED 2 4.4 12:52:24 10° SSE 12:56:36 51° ENE 13:00:48 10° N
STARLINK-1125 4.2 12:57:50 31° NNE 12:57:50 31° NNE 12:59:33 10° NE
Delta 7925 Rocket 4.2 12:55:44 29° SSW 12:56:42 32° S 13:00:56 10° ESE
Lacrosse 5 3.7 12:54:48 10° NNW 12:59:02 26° NE 13:03:16 10° E
METEOR-M 4.3 12:54:01 10° NNE 12:59:21 72° ESE 13:04:39 10° S
STARLINK-1043 3.8 12:58:28 40° NNW 12:59:47 69° NE 13:03:54 10° SE
Cosmos 292 Rocket 3.6 12:56:30 20° NNW 12:59:49 77° WSW 13:04:32 10° S
Cosmos 1605 Rocket 3.9 12:53:52 10° NNW 13:00:00 62° W 13:06:00 10° S
STARLINK-1065 3.7 13:02:32 38° NNW 13:04:01 75° NE 13:08:07 10° SE
STARLINK-1098 3.7 13:02:28 33° SSW 13:04:05 70° SE 13:08:04 10° NE
CZ-2C R/B 4.1 13:02:51 10° NNW 13:04:43 18° NNW 13:04:43 18° NNW
Meteor PRIRODA 3.7 13:04:06 10° N 13:07:41 51° WNW 13:07:43 51° WNW
Cosmos 1943 Rocket 2.6 13:02:33 10° NNW 13:08:01 61° ENE 13:13:25 10° SSE
STARLINK-1123 3.5 13:06:47 31° SW 13:08:36 79° SE 13:12:35 10° NE
Shenzhou-11 Module 2.6 13:10:15 39° NNE 13:10:15 39° NNE 13:12:14 10° NE
STARLINK-1063 3.5 13:08:02 34° NW 13:09:44 85° NE 13:13:53 10° SE
SL-16 R/B 3.8 13:11:09 17° NW 13:11:09 17° NW 13:13:45 10° NNW
Cosmos 407 Rocket 3.4 13:04:48 10° SSW 13:10:08 82° WNW 13:15:28 10° NNE
Cosmos 2297 4.0 13:07:44 25° NW 13:10:29 43° WSW 13:15:46 10° S
Aureole 1 Rocket 4.4 13:03:46 10° SSW 13:10:42 67° WNW 13:19:03 10° NNE
Cosmos 1500 Rocket 3.6 13:06:27 10° N 13:10:53 79° E 13:15:15 10° S
Cosmos 1153 Rocket 4.3 13:06:28 10° N 13:12:36 79° W 13:18:42 10° S
STARLINK-1097 3.4 13:11:08 29° SW 13:13:07 87° SE 13:17:08 10° NE
Okean O Rocket 2.9 13:09:11 10° NNE 13:13:19 42° E 13:17:26 10° S
STARLINK-1064 3.5 13:12:47 31° NW 13:14:42 86° SW 13:18:50 10° SE
Cosmos 1140 Rocket 3.6 13:10:54 10° S 13:16:06 79° ESE 13:21:23 10° NNE
Cosmos 1484 Rocket 3.3 13:12:32 10° N 13:16:13 38° WNW 13:17:16 31° WSW
STARLINK-1099 3.4 13:15:31 26° SW 13:17:40 84° NW 13:21:41 10° NE
Cosmos 1727 Rocket 4.1 13:13:12 10° SSW 13:19:11 50° W 13:25:10 10° N
STARLINK-1041 3.5 13:17:35 28° NW 13:19:41 77° SW 13:23:48 10° SE
STARLINK-1104 3.4 13:19:50 24° SW 13:22:10 76° NW 13:26:10 10° NE
Cosmos 1743 Rocket 3.4 13:18:08 10° NNW 13:22:26 67° W 13:26:43 10° S
Cosmos 2084 3.7 13:19:43 10° SSW 13:24:11 76° ESE 13:28:41 10° NE
Aureole 2 Rocket 4.2 13:21:44 10° N 13:24:28 29° ENE 13:27:19 10° SE
STARLINK-1038 3.6 13:22:21 25° NW 13:24:38 68° SW 13:28:43 10° SE
Cosmos 1603 3.9 13:20:05 10° SW 13:25:37 50° WNW 13:31:10 10° N
STARLINK-1144 3.5 13:24:16 22° WSW 13:26:46 68° NW 13:30:45 10° NE
FENGYUN 3A 3.7 13:22:58 10° N 13:28:19 59° WNW 13:33:38 10° SSW
Cosmos 1633 3.5 13:24:54 10° N 13:28:27 50° E 13:31:59 10° SSE
H-2A R/B 3.9 13:25:13 10° NNW 13:28:06 21° WNW 13:28:06 21° WNW
Cosmos 1842 Rocket 4.5 13:26:57 19° WSW 13:29:04 26° WNW 13:32:52 10° NNW
PSLV R/B 4.1 13:25:49 10° N 13:29:19 39° WNW 13:32:52 10° SW
STARLINK-1046 3.6 13:27:08 22° WNW 13:29:37 60° SW 13:33:40 10° SSE
Cosmos 2369 Rocket 2.4 13:24:14 10° NNW 13:29:58 74° ENE 13:35:38 10° SSE
STARLINK-1103 3.5 13:28:37 19° WSW 13:31:18 61° NW 13:35:16 10° NE
Cosmos 1943 3.2 13:26:55 10° SW 13:32:25 58° WNW 13:37:58 10° NNE
Cosmos 1190 Rocket 4.0 13:27:18 10° SSW 13:32:28 58° WNW 13:37:41 10° N
BREEZE-M DEB (TANK) 3.3 13:24:10 10° WSW 13:32:43 63° NW 13:35:43 10° NE
Cosmos 1238 4.5 13:30:35 10° SSW 13:33:40 41° W 13:36:33 10° N
ADEOS Rocket 4.0 13:28:05 10° SE 13:33:50 51° ENE 13:40:14 10° N
STARLINK-1039 3.8 13:31:55 20° WNW 13:34:35 53° SW 13:38:36 10° SSE
ALOS 2.6 13:31:20 10° N 13:35:43 41° WNW 13:40:05 10° SW
STARLINK-1101 3.6 13:32:58 17° WSW 13:35:49 55° NW 13:39:46 10° NE
CZ-4B DEB 4.2 13:30:38 10° N 13:36:03 65° WNW 13:41:26 10° SSW
Cosmos 2173 Rocket 4.0 13:30:01 10° N 13:36:20 90° WSW 13:42:30 10° S
STARLINK-1128 3.7 13:34:50 17° WSW 13:37:38 51° NW 13:41:30 10° NE
STARLINK-1045 3.9 13:36:44 18° WNW 13:39:32 47° SW 13:43:30 10° SSE
STARLINK-1102 3.8 13:37:24 16° WSW 13:40:26 50° NW 13:44:21 10° NE
Meteor 2-3 Rocket 4.2 13:35:40 10° NNW 13:40:59 40° W 13:46:19 10° SSW
STARLINK-1113 3.8 13:39:01 16° WSW 13:41:59 46° NW 13:45:49 10° NNE
STARLINK-1050 4.1 13:41:36 16° WNW 13:44:34 41° SW 13:48:26 10° SSE
COSMO-SKYMED 1 3.0 13:40:31 10° S 13:44:35 40° W 13:48:41 10° NNW
STARLINK-1111 3.9 13:41:45 14° WSW 13:44:59 45° NW 13:48:52 10° NNE
STARLINK-1119 4.0 13:43:12 14° WSW 13:46:21 42° NW 13:50:09 10° NNE
CZ-4B R/B 3.1 13:41:52 10° NNE 13:47:11 83° WNW 13:52:27 10° SSW
USA 116 3.1 13:45:32 10° S 13:48:53 66° WSW 13:52:01 10° NNW
Cosmos 2100 Rocket 4.0 13:42:57 10° NNW 13:49:04 65° W 13:55:08 10° S
STARLINK-1055 4.3 13:46:21 14° WNW 13:49:30 36° SW 13:53:17 10° SSE
Cosmos 676 Rocket 4.0 13:44:18 10° SSW 13:49:34 71° WNW 13:54:54 10° NNE
STARLINK-1073 4.0 13:46:12 12° WSW 13:49:37 41° NW 13:53:26 10° NNE
STARLINK-1114 4.1 13:47:21 12° WSW 13:50:43 39° NW 13:54:28 10° NNE
Cosmos 1400 Rocket 2.8 13:49:35 10° S 13:53:32 88° ESE 13:57:36 10° N
STARLINK-1121 4.2 13:50:34 11° WSW 13:54:11 37° NW 13:57:58 10° NNE
STARLINK-1022 4.5 13:51:08 12° WNW 13:54:26 32° SW 13:58:08 10° SSE
STARLINK-1130 (DARKSAT) 4.2 13:51:33 11° WSW 13:55:06 35° NW 13:58:48 10° NNE
Cosmos 921 Rocket 3.0 13:51:26 10° NNW 13:55:52 83° WSW 14:00:10 10° S
Cosmos 1869 4.4 13:52:59 10° SW 13:56:16 24° WNW 13:59:33 10° NNW
Cosmos 2061 Rocket 4.0 13:51:51 10° N 13:58:08 87° W 14:04:20 10° S
STARLINK-1106 4.3 13:55:11 10° WSW 13:58:52 34° NW 14:02:34 10° NNE
Cosmos 1633 Rocket 4.4 13:54:41 10° N 13:58:53 44° E 14:03:04 10° SSE
Cosmos 2221 4.0 13:56:41 10° WSW 13:59:12 15° WNW 14:01:43 10° NW
STARLINK-1084 4.3 13:55:54 10° WSW 13:59:31 33° NW 14:03:08 10° NNE
Cosmos 1666 Rocket 4.3 13:55:35 10° N 13:59:57 58° E 14:04:16 10° SSE
STARLINK-1112 4.4 14:00:01 10° WSW 14:03:37 31° NW 14:07:15 10° NNE
Aurora 2 Rocket 4.0 14:03:50 10° SW 14:07:10 22° S 14:09:55 10° SE
Cosmos 1459 Rocket 4.2 14:01:23 10° NNW 14:07:18 49° W 14:13:17 10° SSW
NOAA 6 4.4 14:03:26 10° N 14:08:18 43° WNW 14:13:08 10° SW
Cosmos 2123 Rocket 4.1 14:04:02 10° SSW 14:10:16 63° W 14:16:33 10° N
Cosmos 1606 4.3 14:06:44 10° SSE 14:10:20 41° E 14:13:56 10° NNE
